Weather History for KLUF - March, 2014

Change the Weather History Date:

Monday, March 10, 2014

  Actual Average Record
Temperature  
Mean Temperature 64 °F -  
Max Temperature 79 °F 77 °F 97 °F (1972)
Min Temperature 49 °F 46 °F 29 °F (1922)
Degree Days  
Heating Degree Days 1    
Growing Degree Days 14 (Base 50)    
Moisture  
Dew Point 34 °F    
Average Humidity 36    
Maximum Humidity 62    
Minimum Humidity 13    
Precipitation  
Precipitation 0.00 in - - ()
Sea Level Pressure  
Sea Level Pressure 30.00 in    
Wind  
Wind Speed 5 mph (NNW)    
Max Wind Speed 9 mph    
Max Gust Speed -    
Visibility 10 miles    
Events      
Averages and records for this station are not official NWS values.
T = Trace of Precipitation, MM = Missing Value Source: NWS Daily Summary

Daily Weather History Graph

Daily Weather History Graph

Search for Another Location

Airport or City:

Trip Planner

Search our weather history database for the weather conditions in past years. The results will help you decide how hot, cold, wet, or windy it might be!

Date:

Astronomy

Mar. 10, 2014 Rise Set
Actual Time 6:46 AM MST 6:33 PM MST
Civil Twilight 6:21 AM MST 6:58 PM MST
Nautical Twilight 5:52 AM MST 7:27 PM MST
Astronomical Twilight 5:23 AM MST 7:56 PM MST
Moon 1:31 PM MST (3/10) 2:49 AM MST (3/10)
Length of Visible Light 12h 36m
Length of Day
11h 47m
Waxing Gibbous, 71% of the Moon is Illuminated
Mar 10
Waxing Gibbous
Mar 16
Full
Mar 23
Last Quarter
Mar 30
New
Apr 7
First Quarter

Hourly Weather History & Observations

Time (MST) Temp. Dew Point Humidity Pressure Visibility Wind Dir Wind Speed Gust Speed Precip Events Conditions
12:58 AM 55.2 °F 38.5 °F 53% 30.06 in 10.0 mi Calm Calm - N/A   Clear
1:58 AM 54.3 °F 36.1 °F 50% 30.06 in 10.0 mi North 9.2 mph - N/A   Clear
2:58 AM 52.7 °F 37.8 °F 57% 30.06 in 10.0 mi North 6.9 mph - N/A   Clear
3:58 AM 51.6 °F 35.6 °F 54% 30.06 in 10.0 mi NW 5.8 mph - N/A   Clear
4:58 AM 49.8 °F 37.0 °F 61% 30.06 in 10.0 mi NNW 8.1 mph - N/A   Clear
5:58 AM 51.3 °F 35.2 °F 54% 30.06 in 10.0 mi NE 4.6 mph - N/A   Clear
6:58 AM 49.3 °F 36.9 °F 62% 30.07 in 10.0 mi NNW 8.1 mph - N/A   Clear
7:58 AM 55.9 °F 37.0 °F 49% 30.09 in 10.0 mi North 4.6 mph - N/A   Scattered Clouds
8:58 AM 61.2 °F 37.8 °F 42% 30.10 in 10.0 mi NNE 1.2 mph - N/A   Scattered Clouds
9:58 AM 65.1 °F 34.9 °F 33% 30.10 in 10.0 mi NE 2.3 mph - N/A   Scattered Clouds
10:58 AM 69.4 °F 32.5 °F 26% 30.09 in 10.0 mi ENE 3.5 mph - N/A   Scattered Clouds
11:58 AM 72.9 °F 31.8 °F 22% 30.06 in 10.0 mi Variable 3.5 mph - N/A   Scattered Clouds
12:58 PM 75.0 °F 29.5 °F 19% 30.03 in 10.0 mi SW 5.8 mph - N/A   Partly Cloudy
1:58 PM 77.9 °F 30.2 °F 17% 29.99 in 10.0 mi East 2.3 mph - N/A   Partly Cloudy
2:58 PM 79.0 °F 23.7 °F 13% 29.95 in 10.0 mi Variable 3.5 mph - N/A   Partly Cloudy
3:58 PM 79.3 °F 26.1 °F 14% 29.94 in 10.0 mi ENE 3.5 mph - N/A   Partly Cloudy
4:58 PM 79.0 °F 25.7 °F 14% 29.93 in 10.0 mi SW 5.8 mph - N/A   Partly Cloudy
5:58 PM 77.7 °F 28.6 °F 16% 29.91 in 10.0 mi South 8.1 mph - N/A   Partly Cloudy
6:58 PM 74.7 °F 30.4 °F 20% 29.91 in 10.0 mi SSW 8.1 mph - N/A   Partly Cloudy
7:58 PM 68.9 °F 36.3 °F 30% 29.91 in 10.0 mi SW 2.3 mph - N/A   Partly Cloudy
8:58 PM 68.2 °F 34.3 °F 29% 29.91 in 10.0 mi SSW 3.5 mph - N/A   Partly Cloudy
9:58 PM 65.7 °F 35.6 °F 33% 29.90 in 10.0 mi SSW 4.6 mph - N/A   Clear
10:58 PM 63.9 °F 34.7 °F 34% 29.91 in 10.0 mi WSW 6.9 mph - N/A   Clear
11:58 PM 56.8 °F 39.0 °F 51% 29.91 in 10.0 mi NNW 6.9 mph - N/A   Clear